Temp
-7 -7 -7 -7 -7 -7 -7 -7 -7 -7 -7 -7 -7 -7 -7 -7 -7 -6 -6 -6 -6 -5 -5 -5 -5 -5 -5 -4 -4 -4 -4 -5 -5 -4 -4 -4 -4 -5 -5 -5 -5 -5 -4 -4 -4 -5 -4
-6 -6 -6 -6 -7 -7 -7 -7 -7 -7 -7 -7 -7 -7 -7 -7 -7 -7 -7 -7 -6 -6 -6 -6 -6 -6 -5 -5 -5 -4 -5 -5 -5 -5 -5 -4 -4 -5 -5 -5 -5 -5 -4 -5 -4 -4 -4
-7 -7 -7 -7 -7 -7 -7 -7 -7 -7 -8 -7 -7 -7 -7 -7 -7 -7 -7 -7 -7 -7 -6 -6 -6 -6 -6 -5 -5 -5 -5 -5 -5 -5 -5 -5 -5 -5 -5 -5 -5 -5 -4 -5 -5 -5 -4
-7 -7 -7 -7 -7 -7 -8 -8 -8 -8 -8 -8 -8 -8 -8 -7 -7 -7 -7 -7 -7 -7 -7 -6 -6 -6 -6 -6 -6 -6 -5 -5 -5 -5 -5 -5 -5 -5 -5 -5 -5 -5 -5 -5 -5 -5 -5
-7 -7 -7 -7 -8 -8 -8 -8 -8 -8 -8 -8 -8 -8 -8 -8 -8 -7 -7 -7 -7 -7 -7 -7 -7 -6 -6 -6 -6 -6 -6 -5 -5 -5 -5 -5 -5 -5 -5 -5 -5 -5 -5 -5 -5 -4 -5
-8 -8 -8 -8 -8 -8 -8 -8 -8 -8 -8 -9 -8 -8 -8 -9 -8 -8 -8 -8 -7 -7 -7 -7 -7 -7 -6 -6 -6 -6 -6 -6 -6 -6 -5 -5 -5 -5 -5 -5 -5 -5 -5 -5 -6 -5 -6
-7 -8 -8 -8 -9 -9 -9 -9 -10 -9 -9 -9 -9 -9 -9 -9 -9 -9 -9 -8 -8 -8 -7 -7 -7 -7 -7 -6 -6 -6 -6 -6 -6 -6 -6 -6 -5 -5 -6 -6 -6 -5 -8 -8 -7 -8 -7
-7 -8 -8 -9 -9 -9 -10 -10 -10 -10 -10 -10 -10 -10 -10 -9 -9 -9 -9 -9 -9 -8 -8 -8 -7 -7 -7 -7 -6 -6 -6 -6 -6 -6 -6 -6 -6 -6 -6 -6 -6 -6 -5 -7 -8 -8 -7
-8 -8 -9 -9 -9 -10 -10 -10 -10 -11 -10 -11 -10 -10 -10 -10 -10 -10 -10 -9 -9 -9 -9 -8 -8 -8 -7 -7 -7 -7 -6 -6 -6 -7 -7 -6 -6 -6 -6 -6 -6 -6 -6 -6 -7 -8 -8
-8 -9 -9 -9 -9 -10 -10 -10 -11 -11 -11 -11 -11 -11 -10 -11 -11 -10 -10 -10 -10 -9 -10 -9 -9 -8 -8 -8 -7 -7 -7 -7 -6 -7 -7 -7 -7 -6 -6 -6 -6 -6 -6 -6 -6 -8 -8
-9 -9 -9 -9 -10 -11 -12 -12 -12 -12 -12 -12 -12 -12 -12 -11 -11 -11 -11 -11 -11 -10 -12 -9 -8 -9 -9 -9 -8 -8 -7 -7 -7 -7 -7 -7 -7 -7 -6 -7 -7 -6 -7 -7 -6 -6 -7
-9 -9 -10 -10 -11 -12 -13 -13 -13 -13 -13 -13 -13 -13 -13 -13 -12 -12 -12 -12 -11 -12 -13 -11 -10 -10 -10 -10 -9 -8 -9 -8 -8 -8 -7 -7 -8 -7 -7 -7 -7 -7 -7 -6 -6 -6 -6
-10 -10 -10 -11 -13 -13 -13 -13 -13 -13 -14 -14 -14 -14 -14 -14 -13 -13 -12 -12 -12 -12 -13 -12 -12 -11 -12 -11 -10 -10 -10 -9 -9 -9 -9 -9 -9 -8 -7 -7 -7 -7 -7 -7 -7 -7 -4
-10 -11 -12 -13 -14 -13 -14 -13 -14 -14 -15 -15 -14 -15 -15 -15 -14 -14 -13 -13 -13 -15 -16 -14 -12 -12 -13 -12 -12 -11 -11 -11 -11 -10 -11 -9 -11 -10 -10 -8 -8 -7 -7 -8 -8 -6 -5
-11 -12 -13 -13 -14 -14 -14 -14 -14 -15 -15 -17 -17 -16 -16 -16 -15 -15 -15 -15 -16 -16 -16 -12 -13 -14 -14 -14 -14 -12 -13 -13 -14 -11 -10 -11 -11 -13 -13 -10 -10 -9 -10 -7 -9 -10 -8
-12 -12 -13 -14 -14 -14 -14 -14 -14 -14 -15 -16 -16 -16 -16 -16 -15 -15 -15 -15 -16 -15 -14 -15 -15 -15 -15 -16 -15 -14 -14 -15 -14 -12 -11 -12 -12 -12 -13 -14 -11 -11 -9 -11 -10 -10 -8
-12 -13 -14 -14 -14 -14 -14 -14 -14 -14 -14 -15 -15 -15 -15 -16 -16 -16 -16 -16 -14 -14 -15 -14 -14 -14 -14 -15 -15 -14 -16 -15 -15 -14 -13 -14 -13 -12 -13 -13 -12 -13 -10 -10 -12 -12 -9
-13 -13 -14 -14 -14 -14 -14 -14 -14 -14 -14 -14 -15 -15 -15 -15 -15 -15 -14 -15 -15 -14 -14 -14 -14 -14 -15 -14 -14 -15 -16 -18 -14 -13 -13 -13 -14 -13 -14 -13 -14 -15 -13 -13 -12 -11 -11
-13 -14 -14 -15 -15 -15 -15 -14 -14 -15 -14 -15 -15 -15 -15 -15 -15 -15 -14 -14 -14 -14 -14 -14 -14 -14 -15 -15 -15 -16 -16 -17 -15 -14 -13 -13 -14 -14 -13 -13 -14 -15 -13 -13 -14 -12 -12
-14 -14 -15 -15 -15 -15 -15 -15 -15 -15 -15 -15 -15 -15 -15 -15 -15 -15 -14 -14 -14 -14 -14 -14 -15 -16 -16 -16 -16 -16 -17 -17 -16 -15 -15 -14 -15 -15 -14 -15 -16 -16 -16 -14 -14 -14 -13
-14 -14 -15 -15 -15 -15 -15 -15 -15 -15 -15 -15 -15 -15 -15 -15 -15 -14 -14 -14 -14 -14 -15 -16 -16 -16 -16 -16 -16 -17 -17 -18 -18 -19 -17 -16 -17 -16 -15 -15 -16 -16 -15 -14 -15 -13 -14
-14 -14 -15 -15 -15 -15 -15 -15 -15 -15 -15 -15 -15 -15 -15 -15 -15 -14 -14 -14 -15 -16 -16 -16 -16 -16 -16 -16 -16 -17 -16 -17 -18 -19 -19 -20 -18 -19 -17 -16 -17 -16 -15 -14 -14 -13 -14
-14 -14 -15 -15 -15 -15 -16 -16 -16 -16 -15 -15 -15 -16 -15 -15 -15 -15 -15 -15 -16 -16 -16 -16 -16 -16 -16 -16 -17 -17 -17 -17 -19 -20 -20 -21 -21 -20 -19 -18 -18 -18 -16 -15 -14 -13 -13
-14 -15 -15 -15 -15 -15 -16 -16 -16 -16 -16 -16 -16 -16 -16 -16 -16 -16 -16 -17 -17 -17 -17 -17 -17 -17 -16 -17 -17 -18 -18 -18 -19 -20 -21 -21 -21 -21 -20 -20 -20 -16 -17 -17 -16 -15 -14
-14 -15 -15 -15 -15 -15 -16 -16 -16 -16 -16 -16 -16 -16 -17 -17 -17 -17 -17 -17 -17 -17 -17 -17 -17 -17 -17 -17 -18 -18 -19 -19 -20 -21 -21 -21 -22 -22 -21 -21 -20 -19 -20 -19 -19 -17 -17
-15 -15 -15 -16 -16 -16 -16 -16 -16 -16 -16 -17 -17 -17 -17 -18 -18 -18 -17 -17 -17 -17 -17 -18 -18 -18 -17 -18 -18 -18 -19 -20 -20 -21 -21 -22 -22 -22 -21 -21 -21 -20 -20 -20 -19 -17 -17
-15 -15 -15 -16 -16 -16 -16 -16 -16 -17 -17 -17 -17 -17 -17 -18 -18 -18 -18 -18 -18 -18 -18 -18 -18 -18 -18 -18 -19 -19 -20 -20 -21 -21 -21 -21 -22 -21 -21 -21 -21 -22 -21 -20 -20 -18 -18
-15 -15 -15 -15 -16 -16 -16 -16 -16 -17 -17 -17 -17 -17 -17 -18 -18 -18 -18 -18 -18 -18 -18 -18 -18 -17 -18 -18 -19 -20 -20 -20 -21 -21 -21 -21 -21 -21 -22 -22 -21 -21 -20 -21 -20 -19 -18
-15 -15 -15 -15 -16 -16 -16 -17 -17 -17 -17 -17 -17 -17 -18 -18 -18 -18 -18 -18 -18 -18 -18 -18 -18 -18 -18 -18 -19 -19 -20 -20 -21 -21 -21 -21 -21 -21 -21 -21 -21 -21 -21 -21 -21 -20 -20
Height
5870 5868 5866 5863 5861 5859 5856 5854 5851 5849 5847 5846 5844 5844 5842 5842 5842 5842 5842 5843 5843 5844 5844 5845 5846 5848 5849 5852 5855 5855 5857 5858 5860 5862 5864 5867 5869 5871 5874 5877 5879 5881 5882 5884 5884 5885 5884
5869 5866 5863 5860 5858 5855 5853 5850 5847 5844 5842 5841 5840 5839 5838 5837 5837 5837 5837 5838 5838 5839 5839 5841 5842 5843 5845 5848 5849 5851 5853 5855 5857 5859 5861 5864 5867 5869 5872 5874 5877 5879 5881 5883 5884 5885 5885
5865 5862 5858 5855 5851 5848 5846 5843 5841 5839 5836 5833 5832 5832 5831 5831 5831 5831 5831 5832 5833 5834 5834 5836 5837 5838 5840 5845 5844 5846 5849 5851 5853 5856 5858 5861 5863 5867 5869 5873 5875 5878 5880 5881 5883 5884 5886
5862 5858 5855 5850 5847 5843 5839 5835 5832 5829 5827 5826 5824 5824 5823 5823 5823 5824 5824 5825 5826 5828 5829 5830 5831 5833 5835 5837 5840 5842 5844 5847 5849 5851 5855 5858 5860 5863 5866 5869 5872 5875 5878 5880 5882 5883 5885
5856 5852 5847 5843 5838 5834 5831 5828 5824 5820 5818 5815 5814 5814 5815 5815 5815 5816 5817 5818 5819 5821 5822 5824 5825 5827 5830 5832 5834 5837 5840 5842 5845 5847 5850 5853 5856 5859 5862 5866 5869 5873 5875 5878 5879 5882 5884
5850 5845 5840 5836 5832 5827 5822 5817 5813 5810 5807 5805 5803 5803 5804 5805 5806 5807 5808 5809 5810 5813 5815 5817 5819 5822 5824 5826 5828 5831 5834 5837 5840 5842 5846 5849 5852 5855 5858 5862 5868 5870 5873 5876 5878 5879 5881
5844 5839 5832 5827 5821 5816 5812 5807 5803 5799 5796 5794 5792 5792 5792 5793 5795 5797 5799 5800 5803 5805 5807 5809 5812 5814 5817 5820 5822 5825 5828 5831 5834 5838 5841 5844 5847 5852 5856 5859 5861 5864 5868 5873 5877 5880 5879
5839 5833 5825 5819 5813 5807 5801 5796 5791 5788 5785 5783 5781 5781 5781 5782 5784 5786 5788 5790 5792 5795 5798 5800 5803 5807 5810 5812 5816 5819 5823 5826 5828 5832 5835 5839 5844 5847 5849 5853 5856 5859 5863 5867 5876 5879 5876
5833 5825 5818 5811 5803 5797 5791 5786 5782 5779 5775 5772 5771 5771 5771 5771 5774 5776 5778 5780 5783 5785 5788 5792 5794 5797 5802 5805 5807 5813 5815 5817 5821 5825 5829 5832 5839 5841 5844 5848 5851 5855 5859 5864 5869 5877 5874
5827 5819 5811 5804 5796 5788 5781 5775 5770 5767 5763 5761 5759 5759 5760 5761 5764 5765 5768 5771 5773 5776 5778 5780 5785 5788 5792 5795 5799 5803 5806 5810 5814 5817 5821 5825 5831 5833 5838 5842 5845 5849 5855 5859 5861 5866 5872
5822 5814 5805 5796 5787 5779 5772 5766 5760 5754 5751 5749 5747 5748 5749 5750 5753 5756 5760 5762 5765 5768 5771 5771 5776 5780 5782 5786 5790 5794 5797 5800 5804 5808 5813 5819 5822 5826 5830 5835 5838 5843 5847 5851 5854 5858 5859
5816 5807 5798 5789 5780 5772 5766 5761 5754 5749 5745 5741 5738 5737 5739 5741 5743 5747 5751 5754 5758 5763 5763 5764 5766 5771 5774 5777 5781 5785 5789 5793 5795 5799 5803 5808 5811 5817 5822 5826 5830 5836 5839 5843 5846 5849 5849
5811 5802 5793 5784 5776 5768 5762 5756 5750 5744 5739 5735 5731 5729 5730 5732 5736 5739 5743 5748 5753 5756 5756 5757 5758 5762 5766 5768 5772 5776 5780 5784 5787 5791 5794 5798 5803 5808 5811 5817 5821 5825 5832 5836 5838 5839 5846
5806 5797 5788 5781 5773 5766 5759 5752 5745 5739 5733 5728 5725 5723 5723 5724 5727 5732 5737 5742 5747 5754 5752 5749 5751 5756 5761 5761 5764 5767 5771 5775 5777 5781 5786 5788 5795 5799 5804 5808 5814 5816 5823 5827 5831 5837 5844
5803 5793 5785 5778 5771 5764 5756 5749 5742 5735 5727 5718 5717 5718 5719 5720 5723 5726 5732 5738 5743 5741 5742 5741 5747 5751 5753 5753 5758 5758 5763 5766 5769 5766 5773 5778 5785 5790 5792 5795 5802 5811 5809 5825 5825 5831 5833
5799 5791 5783 5775 5769 5762 5755 5747 5740 5734 5727 5719 5717 5717 5718 5717 5719 5723 5729 5732 5732 5735 5739 5741 5742 5745 5748 5753 5748 5752 5754 5755 5758 5756 5763 5771 5773 5780 5783 5786 5788 5794 5809 5812 5812 5818 5820
5797 5790 5781 5773 5767 5761 5753 5746 5741 5735 5730 5726 5722 5721 5720 5720 5722 5724 5726 5728 5729 5732 5735 5736 5736 5738 5740 5743 5741 5743 5745 5746 5743 5749 5754 5759 5761 5772 5772 5776 5781 5785 5792 5797 5805 5812 5813
5795 5788 5779 5772 5766 5760 5753 5747 5742 5736 5732 5729 5726 5724 5723 5722 5724 5725 5725 5726 5728 5728 5730 5729 5731 5732 5732 5732 5734 5733 5734 5734 5735 5736 5739 5744 5748 5753 5762 5769 5771 5773 5780 5788 5793 5799 5803
5793 5786 5779 5772 5766 5760 5755 5748 5743 5739 5736 5733 5731 5728 5727 5726 5726 5726 5726 5726 5726 5725 5725 5725 5725 5725 5724 5724 5725 5724 5724 5723 5722 5725 5726 5733 5741 5743 5752 5759 5763 5762 5767 5775 5781 5790 5792
5792 5785 5779 5773 5767 5761 5757 5751 5746 5743 5739 5736 5735 5732 5730 5729 5728 5726 5724 5723 5721 5719 5718 5716 5715 5715 5715 5714 5714 5713 5712 5711 5710 5709 5712 5717 5724 5728 5735 5747 5742 5746 5753 5760 5768 5775 5784
5790 5784 5779 5774 5769 5764 5759 5755 5750 5746 5743 5739 5736 5733 5731 5729 5726 5724 5721 5719 5716 5714 5713 5713 5713 5711 5710 5709 5707 5705 5702 5700 5697 5696 5697 5700 5704 5711 5718 5725 5725 5732 5738 5744 5752 5763 5770
5789 5783 5778 5774 5770 5765 5761 5757 5753 5749 5745 5741 5737 5734 5731 5727 5724 5721 5718 5715 5713 5711 5711 5710 5708 5706 5704 5701 5699 5696 5693 5691 5689 5687 5684 5685 5687 5691 5698 5705 5712 5719 5725 5731 5739 5750 5755
5787 5782 5777 5773 5770 5765 5761 5757 5753 5750 5745 5741 5737 5733 5729 5725 5721 5718 5716 5713 5711 5710 5708 5706 5703 5701 5698 5695 5691 5687 5685 5683 5679 5678 5677 5675 5678 5680 5685 5689 5695 5698 5709 5719 5728 5737 5743
5785 5781 5776 5772 5769 5764 5760 5756 5752 5748 5743 5739 5734 5730 5727 5723 5720 5717 5714 5711 5709 5706 5703 5701 5698 5696 5692 5686 5681 5678 5676 5674 5670 5668 5667 5667 5669 5670 5673 5676 5677 5696 5700 5707 5714 5723 5728
5784 5780 5775 5771 5768 5763 5759 5755 5750 5746 5741 5736 5732 5728 5724 5721 5718 5716 5713 5710 5708 5703 5699 5696 5694 5690 5686 5680 5676 5671 5668 5666 5662 5660 5659 5659 5661 5662 5663 5666 5672 5677 5688 5684 5689 5702 5714
5783 5778 5774 5769 5766 5762 5757 5753 5749 5744 5740 5736 5731 5726 5722 5718 5716 5713 5711 5708 5704 5700 5696 5692 5688 5683 5679 5674 5670 5665 5662 5659 5657 5653 5651 5651 5653 5654 5656 5658 5662 5674 5666 5673 5680 5687 5687
5781 5777 5773 5768 5764 5761 5756 5752 5747 5744 5740 5736 5731 5726 5720 5716 5712 5711 5709 5706 5702 5697 5693 5689 5685 5681 5676 5671 5666 5661 5658 5655 5653 5648 5645 5644 5645 5646 5649 5650 5654 5651 5658 5666 5669 5677 5678
5779 5775 5771 5767 5763 5760 5755 5751 5747 5744 5740 5735 5731 5726 5721 5715 5711 5709 5708 5704 5699 5696 5691 5686 5683 5678 5672 5667 5663 5657 5653 5652 5650 5646 5642 5641 5640 5639 5645 5645 5646 5643 5653 5654 5655 5659 5664
5776 5773 5770 5766 5762 5759 5755 5751 5747 5743 5740 5735 5730 5726 5721 5716 5712 5709 5707 5702 5698 5693 5689 5685 5681 5677 5670 5664 5658 5655 5651 5649 5647 5644 5641 5638 5638 5638 5638 5640 5636 5637 5639 5642 5646 5651 5653
Wind_Speed
16 17 18 18 18 19 19 20 20 19 19 18 18 19 20 20 19 19 18 19 19 20 20 19 18 18 19 19 15 18 16 14 13 16 17 19 18 16 13 14 14 13 13 11 10 10 8
19 20 21 23 24 25 25 25 25 25 25 24 23 22 22 22 22 21 20 19 20 20 19 19 18 17 17 18 20 19 20 18 16 14 16 18 20 19 18 14 15 15 15 13 10 6 10
20 22 24 25 26 27 28 29 29 29 29 29 29 29 28 26 24 23 23 22 22 22 21 21 20 19 18 11 18 19 21 21 20 18 16 17 19 20 19 15 12 14 14 15 15 13 8
23 25 28 29 30 31 32 32 33 35 35 34 33 31 29 29 27 25 24 24 23 24 24 24 24 22 20 19 17 17 18 20 22 23 20 18 17 19 21 21 16 13 14 13 16 14 13
27 29 31 32 33 33 33 35 37 36 36 36 37 35 32 33 32 31 29 28 28 26 25 26 26 26 24 23 22 20 19 19 19 21 23 22 19 17 21 21 20 16 15 14 15 15 16
28 30 31 33 32 32 32 31 32 34 37 39 39 38 37 33 33 34 33 32 32 31 30 29 28 27 26 26 25 24 23 22 21 21 21 20 22 21 20 20 19 21 17 15 13 17 14
38 41 43 41 37 35 37 39 37 35 35 37 37 38 37 38 36 34 33 34 33 33 32 31 29 29 26 25 25 27 26 26 26 25 22 20 22 21 20 17 23 27 19 15 15 22 19
42 44 42 40 40 39 36 34 37 38 37 36 37 37 35 35 35 35 35 33 34 34 34 34 33 32 30 29 28 27 28 31 30 28 28 27 22 20 24 25 24 27 31 24 16 19 26
45 43 42 41 41 41 40 37 35 34 35 37 36 37 36 35 33 32 31 32 32 33 35 35 35 37 35 36 36 31 31 32 32 33 32 30 26 27 26 26 29 28 30 28 23 17 24
45 43 40 42 46 46 45 43 41 39 36 33 34 34 33 34 33 33 32 31 30 31 31 37 33 36 34 36 37 36 38 37 35 34 34 35 34 34 32 31 31 32 29 30 34 34 27
44 43 43 45 49 44 36 31 30 29 29 30 29 31 30 30 29 31 29 28 31 31 23 36 36 35 34 34 39 37 38 39 38 37 37 35 37 39 37 36 36 34 34 33 36 40 40
45 46 46 46 44 39 34 33 31 30 27 25 27 26 24 26 25 27 28 26 26 26 20 33 38 33 31 35 36 38 36 38 39 39 40 40 40 42 43 41 41 40 38 39 40 41 48
48 48 46 43 39 36 35 30 33 31 28 25 21 21 21 21 23 24 25 26 23 21 25 32 34 34 31 33 35 34 36 37 38 37 39 39 39 41 44 46 46 46 43 41 44 46 46
46 44 42 39 38 38 34 32 33 30 28 26 20 16 13 16 19 22 22 21 19 8 14 32 35 33 28 35 34 34 33 32 36 40 37 40 31 38 42 44 47 47 48 46 44 45 41
43 39 38 37 37 37 34 31 29 25 32 23 12 8 8 8 9 12 13 11 9 20 31 36 29 24 23 32 29 36 29 31 30 45 46 43 40 16 23 37 46 46 43 47 45 33 40
40 38 37 35 35 36 33 30 26 23 25 19 8 5 4 1 4 8 10 17 19 22 17 17 19 20 18 12 27 29 30 31 34 46 44 38 46 43 31 26 42 44 46 35 45 47 47
38 37 37 33 34 35 29 26 23 17 20 19 13 9 8 7 9 11 11 13 7 10 12 17 19 21 24 26 29 29 26 33 41 41 41 38 43 43 43 41 41 37 49 51 35 36 54
36 36 36 33 34 30 26 22 23 19 16 15 13 12 12 9 6 3 1 1 5 4 11 14 17 23 29 33 36 41 39 32 45 45 46 45 47 48 45 47 35 31 42 36 46 43 43
32 34 34 30 33 26 24 22 19 17 17 16 15 15 14 12 10 7 5 4 6 8 10 14 19 22 26 30 34 38 42 45 49 48 50 45 44 49 46 45 46 38 45 43 39 46 46
30 31 32 27 30 25 22 21 19 17 16 15 14 13 13 10 9 9 10 9 9 13 15 16 12 9 11 14 19 26 36 38 48 53 51 50 49 52 53 40 41 41 38 41 44 36 41
30 29 27 24 26 23 21 20 19 18 16 16 15 15 12 11 9 9 9 10 12 13 8 1 2 7 14 17 20 24 25 27 34 36 49 54 51 52 58 56 49 53 55 54 45 51 44
29 27 23 22 21 20 20 18 16 20 18 16 16 15 14 12 10 10 10 10 9 5 2 6 10 14 16 22 25 27 28 30 30 30 36 34 41 42 53 59 55 61 61 61 60 57 55
28 23 20 18 20 21 19 17 19 18 20 19 18 19 17 15 12 10 10 9 7 6 9 12 16 17 23 27 31 26 26 28 29 27 28 35 30 31 39 46 52 63 66 64 65 61 61
26 20 19 18 21 22 21 20 21 23 23 22 21 18 15 12 11 11 11 10 12 15 18 20 21 24 28 30 25 25 27 28 26 23 26 26 28 32 30 32 40 45 58 57 61 64 63
23 21 18 19 21 22 22 21 22 23 23 22 19 18 14 9 10 11 11 13 17 16 14 15 14 20 22 25 22 22 23 18 16 17 17 22 26 32 31 35 33 36 35 42 45 61 64
22 21 20 20 22 22 22 20 23 24 20 19 20 20 18 14 13 12 13 12 19 21 19 19 19 22 22 21 21 17 14 11 19 19 22 15 20 32 32 33 33 33 37 44 50 61 66
19 21 21 20 21 22 21 21 21 19 19 21 21 23 20 16 13 13 13 17 20 22 20 19 19 18 17 16 16 13 10 12 15 17 13 16 18 21 27 35 35 36 40 37 46 54 60
17 21 20 19 20 20 19 18 17 18 20 21 23 23 22 17 14 11 14 20 19 20 20 18 20 20 21 15 13 14 10 9 10 7 7 9 14 19 18 30 37 42 41 39 46 54 60
15 18 17 17 18 18 18 18 17 17 19 19 21 23 21 23 17 12 18 21 18 20 20 19 20 21 22 20 15 17 17 14 10 5 8 8 13 19 22 17 24 28 36 49 42 53 47
Wind_Direction
337 332 327 321 317 312 307 301 296 292 287 283 279 278 276 274 271 270 267 264 263 261 261 260 257 253 247 244 236 234 235 238 226 221 223 220 220 226 227 221 213 209 220 223 248 241 260
325 319 315 310 306 302 297 293 289 284 279 276 272 271 272 271 268 264 262 259 257 256 254 254 253 252 249 244 235 236 233 234 236 228 224 221 220 222 227 226 218 216 214 213 219 249 233
316 311 306 301 296 293 291 290 288 285 280 275 271 268 266 263 263 263 259 255 251 250 250 248 247 247 247 233 231 234 232 232 231 232 227 225 224 223 223 228 232 229 225 227 237 252 229
316 312 308 304 302 299 292 286 283 281 281 278 275 269 264 260 255 252 253 253 251 249 245 244 243 242 243 239 235 232 233 232 230 230 230 227 227 227 222 220 222 222 230 233 235 233 250
319 317 313 310 307 303 300 294 287 282 277 276 274 270 265 260 255 251 249 250 249 247 245 243 244 242 238 239 236 232 228 229 232 231 230 229 226 229 227 222 217 218 220 229 248 227 236
333 327 323 321 314 309 303 295 288 282 279 276 273 270 267 261 257 255 252 250 249 247 244 243 242 243 238 237 238 236 233 228 228 231 228 226 225 225 228 228 218 217 221 231 237 243 240
335 332 330 325 316 303 296 295 291 284 277 276 273 271 268 265 259 256 255 252 250 247 245 244 242 241 235 237 238 237 235 232 228 227 232 226 226 227 223 219 216 215 199 247 224 260 255
331 329 325 324 322 318 314 304 293 288 283 277 274 271 267 265 264 260 258 256 252 250 246 245 244 241 240 241 241 240 240 237 234 228 226 228 226 221 221 215 216 220 220 197 228 237 260
331 329 329 329 325 318 314 309 303 300 291 280 273 270 268 262 259 256 255 255 254 252 249 245 245 244 245 245 245 244 245 243 237 234 230 228 225 223 223 222 221 220 223 218 193 216 263
333 331 328 326 325 323 317 310 304 299 294 284 275 267 265 263 260 255 254 252 250 250 250 248 244 247 246 246 245 244 244 243 242 236 233 230 227 226 223 223 224 223 224 224 217 192 222
335 333 330 326 327 330 331 335 331 318 298 283 276 271 265 259 257 256 252 252 251 249 252 249 245 245 246 244 243 239 238 238 236 236 235 233 229 229 228 225 227 225 219 218 226 226 210
337 335 333 333 334 334 336 335 333 329 324 315 286 273 266 256 255 249 250 248 249 248 244 248 251 249 248 244 243 241 238 237 237 238 238 234 231 229 229 229 228 227 226 224 225 226 231
339 337 337 337 338 339 337 336 335 332 327 317 305 287 269 252 248 248 243 242 242 242 244 249 247 248 250 247 244 242 238 236 237 237 238 237 237 239 232 228 229 228 228 226 226 230 239
342 340 339 340 341 341 339 335 331 333 330 318 302 292 286 260 245 241 241 239 236 185 228 249 250 252 250 247 247 240 242 239 239 240 239 238 237 239 241 235 234 233 229 229 232 233 244
344 341 342 343 346 348 347 342 340 344 344 320 288 287 294 274 244 227 224 213 195 196 224 245 260 262 252 252 250 252 248 243 232 236 232 230 231 198 240 242 232 228 232 229 228 225 241
346 344 346 348 349 348 349 347 349 359 4 23 39 15 20 39 210 204 198 197 232 236 250 253 243 243 235 252 268 249 252 249 236 243 240 239 239 230 220 229 234 228 224 229 228 229 229
346 346 348 351 350 349 351 353 359 2 22 29 40 54 64 76 104 127 128 211 233 237 234 245 245 245 246 236 242 252 238 243 251 250 248 247 245 231 226 227 238 234 226 219 214 237 233
347 347 351 354 354 354 356 2 11 18 16 23 33 52 62 72 101 141 116 278 245 250 240 259 256 254 253 256 251 251 255 255 251 252 251 244 237 237 227 232 227 255 235 223 219 212 220
349 349 355 360 358 0 2 9 9 23 41 47 50 55 55 55 59 66 30 2 317 300 283 269 266 263 263 264 262 260 260 257 259 251 248 242 238 238 236 236 236 233 234 227 215 223 217
351 349 356 2 3 4 8 17 26 34 44 43 39 42 40 35 29 0 334 319 317 296 295 291 288 299 301 301 292 284 274 270 262 259 255 247 236 233 231 227 226 223 234 224 215 221 227
350 351 358 2 6 12 16 18 28 27 29 35 31 31 21 8 359 347 334 324 308 304 294 331 317 321 326 317 314 310 314 306 291 275 263 260 252 240 232 227 221 222 229 233 219 221 219
350 352 1 4 1 6 6 8 358 6 11 11 4 5 2 355 355 354 340 325 312 299 261 320 323 322 328 322 316 296 299 299 294 286 275 267 255 244 238 232 224 230 229 232 235 230 216
353 355 2 1 359 358 357 353 353 349 346 345 347 347 342 343 345 336 319 314 299 288 283 298 306 309 314 316 311 295 278 282 292 271 267 258 265 255 245 235 233 223 228 232 236 236 233
358 356 359 355 348 349 350 346 345 344 346 344 344 344 340 344 340 319 301 304 309 303 300 298 300 308 311 314 308 294 285 280 295 271 258 257 253 249 234 232 230 236 227 232 233 236 231
359 357 349 350 350 346 347 348 348 347 347 349 355 356 351 345 332 316 315 330 344 350 337 320 321 316 322 317 309 294 285 289 296 288 258 257 246 248 241 234 232 222 216 211 220 225 226
357 356 357 354 353 349 350 352 349 348 356 4 7 359 348 335 333 345 356 6 5 1 356 345 334 329 327 316 309 302 286 293 304 286 272 240 254 243 241 243 239 220 224 213 217 226 227
351 354 358 358 355 350 349 349 354 0 2 4 6 4 358 343 318 321 336 341 348 354 347 341 347 344 332 326 319 324 298 305 314 307 267 239 245 246 244 245 240 239 228 222 224 227 230
340 350 357 2 2 357 357 359 2 359 357 360 4 5 6 357 348 340 336 336 334 347 348 347 356 353 349 350 350 356 338 323 326 321 302 259 241 237 252 247 251 250 242 234 228 231 228
334 345 353 360 0 359 358 353 351 353 352 357 4 3 6 8 1 3 355 348 355 355 360 354 358 3 360 9 13 8 10 356 352 322 297 277 257 251 244 246 251 248 238 235 235 229 232